sat.trackr.live / text

‹ back to catalog

STARLINK-5342

NORAD 56516 · 2023-065P

PAYLOAD ACTIVE UNKNOWN

§ Identity

Operator
Country
US
Launch date
2023-05-14
Launch site
AFETR
Launch vehicle
Mass (kg)
RCS (m²)

Purposes: comms

External: N2YO · Heavens-Above · Gunter

§ Orbital elements

Epoch: 2026-05-25T00:10:03.588672Z

Period
94.27 min
Inclination
43.0029°
Eccentricity
0.0001400
Mean motion
15.27579723 rev/d
Perigee alt
482.1 km
Apogee alt
484.0 km
Semi-major
6,861.2 km
B*
2.5191e-5
RAAN
141.2940°
Arg perigee
267.8835°
Mean anomaly
92.1857°
Rev number
16,827

§ Raw data

STARLINK-53421 56516U 23065P   26145.00698598  .00000431  00000+0  25191-4 0  99912 56516  43.0029 141.2940 0001400 267.8835  92.1857 15.27579723168272

JSON: /api/v1/satellites/56516 · /tle

For live sub-satellite position, see the globe view (requires WebGL).

§ Visibility from observer

Set your observer location to see the next 7 days of passes ≥ 10°. The values pass through the URL so the page stays shareable.

No JS? Fill the form by hand. The geolocation button needs JavaScript.